RH
80 80 80 81 81 81 81 81 81 81 81 81 81 81 81 81 80 79 78 77 76 75 75 74 74 74 74 74 73 72 72 71 70 69 69 69 69 69 70 71 72 73 73 74 75 76 77 78 78 79 79 79 79 79 80 81 82 83 85 86 88 89 90 89 88 88 88 89 90
82 82 83 83 83 82 81 80 80 80 79 79 78 78 78 77 76 75 74 73 71 70 69 68 68 68 68 68 67 66 65 64 64 63 63 63 63 63 63 64 64 65 66 67 68 69 71 72 73 74 74 74 74 74 75 76 77 78 80 81 83 86 87 87 87 87 86 86 87
83 83 82 81 80 79 79 79 78 78 77 76 76 75 74 73 72 71 70 69 68 67 66 65 65 65 64 63 62 61 60 60 59 59 58 58 57 56 56 56 56 56 57 58 59 60 62 64 65 66 67 67 68 68 69 71 72 74 75 76 77 79 82 84 84 85 85 85 85
79 78 76 74 73 74 74 73 73 72 72 71 71 70 69 68 68 67 66 66 64 63 62 61 60 59 58 57 56 55 54 54 53 53 52 52 51 50 49 49 49 49 49 49 50 51 53 54 56 57 58 59 60 61 63 64 66 68 69 70 71 73 74 76 78 80 81 82 81
70 69 67 66 66 66 65 65 64 64 63 63 62 61 60 60 60 59 58 57 56 54 52 51 50 49 48 47 47 46 46 45 45 45 45 45 44 44 44 44 44 44 45 45 45 46 46 48 48 49 50 50 52 54 56 58 60 62 64 67 69 69 70 70 72 74 76 78 78
65 64 63 63 62 62 61 61 60 59 58 57 56 55 54 53 52 51 50 49 47 46 44 43 42 42 41 41 41 40 40 39 39 38 38 38 38 38 38 39 39 40 41 41 43 43 44 45 45 45 45 45 46 47 49 51 53 56 59 64 67 68 68 68 67 68 70 72 75
62 61 60 60 59 58 58 57 56 55 54 53 51 50 49 48 48 47 46 45 43 42 41 40 39 39 39 38 38 37 37 36 36 35 35 34 34 34 34 34 35 36 37 38 40 42 43 44 44 44 43 43 43 43 44 45 47 50 53 57 61 65 67 68 68 68 68 70 72
60 60 59 58 57 56 55 53 52 51 50 48 47 46 45 45 44 43 42 41 39 38 37 37 37 37 37 37 36 36 36 36 35 34 34 33 32 32 31 31 32 33 34 36 38 40 42 43 43 43 43 43 43 42 43 43 43 45 47 49 54 58 62 66 67 68 70 73 74
59 58 57 55 54 53 51 50 49 47 46 45 44 43 42 41 40 39 38 37 36 35 35 34 34 34 34 34 35 35 35 35 34 34 33 32 32 31 30 30 30 30 31 33 36 39 41 42 42 42 42 42 42 42 42 42 42 42 43 44 46 50 54 58 61 63 65 68 69
54 53 51 50 49 48 47 46 45 44 43 42 41 40 39 38 37 35 35 34 33 33 32 32 32 32 32 32 32 33 33 33 33 33 33 32 31 31 30 29 29 29 29 30 33 35 38 41 41 41 41 41 41 42 42 42 42 42 42 42 43 44 45 48 51 53 55 57 58
50 48 47 46 45 44 44 43 42 41 40 39 38 37 36 34 34 33 32 32 31 31 31 31 31 31 31 31 31 31 32 32 32 32 32 32 31 31 30 30 30 30 29 29 30 32 35 38 40 41 41 41 42 42 42 43 42 42 42 43 44 44 44 45 45 46 47 48 50
47 46 45 44 43 42 40 39 38 37 36 35 34 33 33 32 32 32 31 31 31 31 31 31 31 31 31 31 31 31 31 31 32 32 32 32 32 32 32 31 31 31 31 30 30 31 32 33 35 38 40 40 41 42 42 43 43 43 44 45 45 45 45 45 45 45 45 46 47
43 42 41 40 39 37 36 35 34 33 32 32 32 31 32 32 32 31 31 31 31 31 31 31 31 31 31 31 31 31 31 31 31 31 31 31 31 32 32 32 32 32 32 31 31 31 31 31 32 33 34 36 38 39 39 40 41 42 43 43 44 44 45 45 46 46 46 46 47
38 37 36 35 34 34 33 32 32 31 31 31 31 31 31 31 31 31 31 31 31 31 31 31 31 31 31 31 30 30 30 30 30 30 30 30 30 30 30 31 31 31 31 31 31 31 31 30 30 30 31 31 32 33 34 35 36 37 38 38 39 40 41 43 44 46 46 47 47
34 33 33 32 32 31 31 30 30 30 30 30 30 30 30 30 30 30 30 31 31 30 30 30 30 30 29 29 29 29 29 28 28 28 28 28 28 28 28 28 28 28 29 29 29 29 28 28 29 29 29 29 29 30 30 31 31 32 32 32 33 34 35 36 39 41 43 44 46
32 32 31 31 31 30 30 30 30 30 30 30 30 30 30 30 30 30 30 31 30 30 29 29 28 28 27 27 26 26 26 26 26 26 25 25 25 25 25 25 25 25 25 26 26 26 26 26 26 27 27 28 28 28 29 29 30 30 29 29 29 29 30 31 33 35 37 38 40
32 32 32 32 32 32 32 31 31 31 31 31 31 31 31 31 30 30 30 29 29 28 27 26 25 25 24 23 23 23 22 22 22 22 22 22 22 22 22 23 23 23 23 24 24 24 25 25 25 25 26 27 27 28 29 30 30 30 30 29 29 29 29 29 30 32 33 35 35
32 32 33 33 33 33 33 33 33 32 32 32 31 30 30 29 28 28 27 26 25 24 23 23 22 21 21 20 20 19 19 19 19 19 19 19 19 19 20 20 20 21 22 23 23 24 24 25 25 26 26 27 27 28 29 30 31 31 31 31 31 30 30 31 31 32 34 35 35
33 33 33 33 33 33 32 32 31 31 30 29 28 27 26 26 25 24 23 23 22 21 21 20 20 19 19 18 18 18 17 17 17 17 17 17 17 17 18 18 18 19 20 21 22 23 24 24 25 26 26 27 27 28 29 30 30 31 31 31 31 32 32 32 33 34 34 35 36
33 33 32 32 31 30 29 28 28 27 26 25 24 24 23 23 22 22 21 20 20 20 19 19 18 18 18 17 17 17 17 17 16 16 16 16 16 16 16 16 17 17 18 19 20 21 22 23 24 25 26 26 27 28 28 29 30 31 31 31 32 32 32 33 34 35 35 36 36
31 30 29 28 27 26 25 24 23 23 22 22 21 21 21 20 20 19 19 19 18 18 18 17 17 17 16 16 16 16 16 16 15 15 15 15 15 15 15 15 15 16 16 17 18 19 20 22 23 24 24 25 26 27 28 29 30 30 31 32 32 32 32 33 33 34 35 35 36
26 25 24 23 23 22 21 21 20 20 19 19 18 18 17 17 16 16 16 16 15 15 15 15 14 14 14 14 14 14 14 14 14 14 14 14 14 14 14 14 14 14 15 15 16 17 18 19 21 22 23 24 25 25 26 28 29 30 31 32 32 33 33 33 33 33 34 34 34
22 21 21 20 19 19 18 17 17 16 16 15 14 14 13 13 12 12 12 12 11 11 11 11 11 11 11 11 11 11 11 11 11 12 12 12 12 12 12 12 13 13 13 14 14 15 16 17 19 20 21 22 23 24 25 26 27 29 30 32 33 33 34 33 33 33 33 33 33
19 18 17 17 16 15 15 14 13 13 12 11 11 10 10 9 9 8 8 8 8 8 8 8 8 8 9 9 9 9 9 9 9 10 10 10 10 10 10 11 11 12 12 12 13 13 14 15 17 18 20 21 23 24 24 25 26 28 29 31 32 33 34 34 34 34 34 34 34
16 15 15 14 13 12 12 11 10 9 9 8 8 7 7 7 6 6 6 6 6 6 7 7 7 7 7 7 8 8 8 8 8 8 8 9 9 9 9 10 10 10 11 12 12 13 13 14 16 17 19 21 22 24 25 26 26 27 28 30 32 33 34 35 35 35 35 35 34
13 12 11 11 10 9 8 8 7 7 6 6 6 6 6 6 6 6 6 6 6 6 6 7 7 7 7 7 7 7 7 7 8 8 8 8 8 8 8 9 9 10 10 11 12 13 13 14 15 17 19 21 23 24 26 27 27 28 29 30 31 32 33 34 34 35 35 35 35
10 9 8 8 7 7 6 6 6 6 6 6 6 6 6 6 6 7 7 7 7 7 7 7 7 7 7 7 7 7 7 7 7 8 8 8 8 8 8 8 9 9 10 11 12 13 14 15 16 17 19 21 23 25 27 28 29 29 30 31 31 32 32 33 34 34 35 35 35
7 7 6 6 6 6 6 6 6 6 7 7 7 7 7 7 7 7 8 8 8 8 8 8 8 8 8 8 8 8 8 8 8 8 8 8 8 8 8 8 9 9 10 11 12 14 15 16 16 17 18 20 23 25 27 29 30 31 31 31 31 31 31 32 33 33 34 35 35
6 6 6 6 6 6 7 7 7 7 8 8 8 8 8 8 8 8 8 8 8 8 8 8 8 8 8 8 8 8 8 8 8 8 9 9 9 9 9 9 9 9 10 10 11 13 14 15 16 17 18 19 21 23 26 28 29 30 31 31 31 31 31 31 32 33 33 34 35
7 7 7 8 8 8 9 9 9 9 9 9 9 9 9 9 9 9 9 9 9 9 9 9 9 9 9 9 9 9 9 9 9 10 10 10 10 9 9 10 10 10 10 10 11 12 13 14 15 16 17 19 20 22 24 26 27 29 30 31 31 31 31 31 31 32 33 34 34
9 9 10 10 10 10 10 11 11 11 11 11 11 11 11 11 11 11 11 11 11 11 11 11 11 11 11 11 11 11 11 11 11 11 12 12 12 11 11 11 11 11 11 11 11 11 12 13 14 15 17 19 21 22 23 25 26 28 29 30 31 31 31 31 31 32 32 33 34
11 11 11 11 12 12 12 13 13 13 13 13 13 13 13 13 13 13 13 14 14 14 14 14 14 13 13 13 13 13 13 13 13 13 13 13 14 13 13 12 12 12 12 12 12 12 13 13 14 14 16 18 20 22 23 25 25 26 27 29 30 30 31 31 31 32 32 33 34
12 13 13 13 14 14 14 14 14 15 15 15 15 15 15 15 15 15 15 16 16 16 16 16 15 15 15 15 15 14 14 14 14 14 14 14 14 14 13 13 12 12 13 13 14 14 14 14 14 15 16 17 20 22 24 25 25 26 27 27 28 29 30 31 32 32 32 33 33
14 14 15 15 15 15 16 16 16 16 16 16 16 17 17 17 17 17 17 17 17 17 17 17 17 17 17 16 16 16 16 15 15 15 15 14 14 14 14 13 13 13 13 14 15 15 15 15 15 16 16 18 20 22 24 26 26 27 27 27 28 29 30 31 31 32 32 33 33
16 16 16 16 16 17 17 17 17 17 17 17 17 17 18 18 18 18 18 18 18 18 18 18 18 18 18 17 17 17 17 16 16 15 15 15 15 15 14 13 13 13 14 15 16 16 17 17 17 17 18 18 20 22 25 27 28 28 27 27 28 28 29 30 31 31 32 32 33
17 17 17 17 17 17 17 17 18 18 18 18 18 18 18 19 19 19 19 19 19 19 19 18 18 18 18 18 18 18 18 17 17 16 16 16 16 16 15 15 14 14 14 15 16 17 18 19 19 19 19 20 21 22 24 27 28 28 28 28 28 28 29 30 30 31 32 32 33
17 17 17 17 17 17 18 18 18 18 18 18 19 19 19 19 20 20 20 21 20 20 20 19 19 19 19 19 19 19 19 19 18 18 18 17 17 17 17 16 15 15 15 16 17 18 19 20 21 21 22 22 22 23 25 28 29 30 30 30 29 29 29 29 30 31 31 32 32
18 18 18 18 18 18 18 18 18 19 19 19 19 19 20 20 20 20 21 21 21 22 21 21 21 21 21 21 21 20 20 20 20 20 19 19 19 18 18 17 16 16 16 16 17 18 19 20 22 23 24 25 25 25 26 28 31 31 32 31 31 30 30 29 30 30 31 31 32
18 18 18 18 18 18 18 18 19 19 19 20 20 20 20 20 21 21 21 22 22 23 23 22 22 22 22 22 22 22 21 21 21 21 21 20 20 20 20 19 18 17 17 17 17 18 19 21 22 24 26 27 28 28 28 29 31 32 33 32 32 32 32 31 31 31 31 31 31
18 18 18 18 18 18 19 19 19 20 20 20 20 20 20 21 21 21 21 22 23 23 23 23 23 23 23 23 23 23 22 21 21 21 22 21 21 21 21 21 20 19 18 17 18 18 19 21 23 25 27 30 31 31 31 31 32 33 34 34 34 34 34 33 33 32 32 32 32
17 18 18 18 18 19 19 19 20 20 20 21 21 21 21 21 21 21 22 22 23 23 24 24 23 23 23 23 23 23 22 22 21 22 22 22 22 22 22 22 21 20 20 19 19 19 20 21 23 26 29 32 33 34 35 35 35 35 35 36 36 36 36 35 35 34 34 33 33